Location: Bethera
(33.2010°N, 79.7880°W)
Time: 01:17:22
(UTC-04:00)

Amateur Radio Satellites - All Passes

Search period start: 30 June 2015 00:47
Search period end: 01 July 2015 00:47
Location: Bethera, 33.2010°N, 79.7880°W

Satellite Date Start Highest point End Downlink Frequencies (MHz)
Time Altitude Azimuth
SPROUT 30 Jun 00:48:48 00:53:07 79° 77° (ENE) 00:57:26 437.525
BUGSAT 1 30 Jun 00:55:29 00:59:32 70° 284° (WNW) 01:03:32 437.445
CUBEBUG 1 30 Jun 01:03:52 01:07:01 18° 267° (W) 01:10:01 437.445
UNISAT 6 30 Jun 01:12:23 01:14:18 12° 291° (WNW) 01:16:00 437.425
QB50P1 30 Jun 01:26:03 01:29:05 19° 289° (WNW) 01:32:01 145.935-145.965
BEESAT 30 Jun 01:27:01 01:30:29 21° 70° (ENE) 01:34:05 436.000
RS-15 30 Jun 01:27:14 01:30:08 12° 101° (E) 01:34:15 29.354- 29.394
SWISSCUBE 30 Jun 01:40:57 01:45:09 32° 72° (ENE) 01:49:25 437.505
NANOSAT C BR1 30 Jun 01:43:25 01:45:21 13° 291° (WNW) 01:47:03 145.865
ITUPSAT 1 30 Jun 01:43:43 01:47:51 31° 72° (ENE) 01:52:06 437.325
TISAT 1 30 Jun 01:52:20 01:55:58 26° 264° (W) 01:59:31 437.305
PCSat 30 Jun 02:01:24 02:05:30 22° 53° (NE) 02:09:43 145.827
Cosmos 2491 30 Jun 02:08:57 02:13:47 17° 65° (ENE) 02:19:11 435.465 / 435.565
SRMSAT 30 Jun 02:14:31 02:14:48 10° 197° (SSW) 02:14:57 437.500
KKS-1 30 Jun 02:29:46 02:32:10 15° 69° (ENE) 02:34:46 437.445
YUBILEINY 30 Jun 02:44:14 02:46:07 11° 80° (E) 02:48:52 435.215
SO-50 30 Jun 02:47:41 02:50:54 17° 48° (NE) 02:54:14 436.795
Oscar 19 30 Jun 02:54:20 02:59:28 85° 286° (WNW) 03:04:37 437.125/150
ITAMSAT 1 30 Jun 02:55:10 02:59:14 24° 95° (E) 03:03:26 435.822/435.867
BEESAT 30 Jun 03:03:51 03:08:08 33° 263° (W) 03:12:24 436.000
SWISSCUBE 30 Jun 03:19:27 03:23:04 21° 266° (W) 03:26:34 437.505
ITUPSAT 1 30 Jun 03:22:04 03:25:47 22° 266° (W) 03:29:24 437.325
RS-15 30 Jun 03:30:15 03:41:02 76° 116° (ESE) 03:52:09 29.354- 29.394
STARS 30 Jun 03:32:48 03:37:01 46° 74° (ENE) 03:41:15 437.465
PCSat 30 Jun 03:44:00 03:49:09 44° 250° (WSW) 03:54:13 145.827
AIST 1 30 Jun 03:45:13 03:49:17 37° 79° (E) 03:53:19
JAS-2 30 Jun 03:51:25 03:56:53 28° 96° (E) 04:03:02 435.910
Gurwin Techsat 1B 30 Jun 03:57:30 04:02:49 76° 285° (WNW) 04:08:07 435.225
Cosmos 2491 30 Jun 04:03:08 04:11:55 84° 265° (W) 04:20:37 435.465 / 435.565
KKS-1 30 Jun 04:04:16 04:08:30 41° 261° (W) 04:12:43 437.445
AO-7 30 Jun 04:12:37 04:19:00 25° 94° (E) 04:25:41 29.400- 29.500
SO-50 30 Jun 04:27:00 04:31:49 53° 245° (WSW) 04:36:30 436.795
YUBILEINY 30 Jun 04:33:10 04:41:51 80° 95° (E) 04:50:33 435.215
ITAMSAT 1 30 Jun 04:34:07 04:38:48 33° 289° (WNW) 04:43:24 435.822/435.867
HORYU 2 30 Jun 04:59:27 05:03:53 66° 101° (E) 05:08:20 437.375
STARS 30 Jun 05:11:53 05:13:45 12° 269° (W) 05:15:21 437.465
MOZHAYETS 4 30 Jun 05:20:57 05:25:28 72° 258° (WSW) 05:30:03
AIST 1 30 Jun 05:24:25 05:26:37 13° 272° (W) 05:28:34
JAS-2 30 Jun 05:35:52 05:42:01 45° 287° (WNW) 05:48:49 435.910
CUBESAT XI-V 30 Jun 05:36:47 05:38:09 11° 67° (ENE) 05:39:49 437.345
RS-15 30 Jun 05:45:25 05:54:41 29° 318° (NW) 06:03:54 29.354- 29.394
AO-7 30 Jun 06:04:05 06:12:18 61° 291° (WNW) 06:20:26 29.400- 29.500
Cosmos 2491 30 Jun 06:04:17 06:07:41 12° 279° (W) 06:10:17 435.465 / 435.565
Cosmos 2504 30 Jun 06:19:22 06:25:58 38° 90° (E) 06:32:30 435.465 / 435.565
PRISM 30 Jun 06:25:26 06:26:09 10° 68° (ENE) 06:27:07 437.425
CUTE-I 30 Jun 06:33:06 06:36:27 17° 92° (E) 06:40:03 437.470
YUBILEINY 30 Jun 06:34:13 06:39:50 17° 294° (WNW) 06:44:54 435.215
Cubesat XI-IV 30 Jun 07:04:30 07:09:26 37° 97° (E) 07:14:24 437.490
CUBESAT XI-V 30 Jun 07:10:29 07:15:07 61° 260° (W) 07:19:48 437.345
STRAND 1 30 Jun 07:42:41 07:47:48 85° 254° (WSW) 07:53:00 437.568
CUSAT 1 30 Jun 07:51:23 07:56:13 20° 93° (E) 08:00:43 437.405
PRISM 30 Jun 07:57:08 08:01:10 51° 260° (W) 08:05:15 437.425
AO-7 30 Jun 08:02:19 08:03:40 10° 307° (NW) 08:04:20 29.400- 29.500
BRITE-PL 30 Jun 08:05:33 08:06:32 11° 89° (E) 08:07:48 437.365/2234.400
RS-15 30 Jun 08:11:20 08:12:48 10° 352° (N) 08:14:01 29.354- 29.394
CUTE-I 30 Jun 08:11:41 08:16:50 47° 287° (WNW) 08:21:55 437.470
Cosmos 2504 30 Jun 08:13:07 08:19:27 30° 286° (WNW) 08:25:29 435.465 / 435.565
BEESAT 3 30 Jun 08:16:34 08:20:08 32° 113° (ESE) 08:23:49 437.485
DANDE 30 Jun 08:19:00 08:25:26 29° 93° (E) 08:31:10 436.750
BEESAT 2 30 Jun 08:21:49 08:25:18 28° 113° (ESE) 08:28:53 435.950
O/OREOS (USA 219) 30 Jun 08:44:48 08:49:15 71° 107° (ESE) 08:53:42 437.305
Cubesat XI-IV 30 Jun 08:45:08 08:49:21 23° 291° (WNW) 08:53:24 437.490
AUBIESAT-1 30 Jun 08:51:12 08:54:26 58° 72° (ENE) 08:57:43 437.475
VERMONT LUNAR 30 Jun 08:58:08 09:00:50 28° 146° (SSE) 09:03:36 437.305
AIST 2 30 Jun 09:08:12 09:11:26 22° 111° (ESE) 09:14:47 435.215
GONETS M04 30 Jun 09:10:09 09:17:15 30° 87° (E) 09:24:36
DOVE 4 30 Jun 09:12:12 09:15:31 24° 95° (E) 09:18:54 437.250
M-CUBED/EXP-1 PRIME 30 Jun 09:20:57 09:24:02 36° 257° (WSW) 09:27:06 437.505
SEEDS 30 Jun 09:23:32 09:26:57 24° 95° (E) 09:30:28 437.485
CUSAT 1 30 Jun 09:31:26 09:38:47 57° 279° (W) 09:44:34 437.405
BRITE-PL 30 Jun 09:41:20 09:45:31 44° 285° (WNW) 09:49:28 437.365/2234.400
GOMX 1 30 Jun 09:41:27 09:45:42 81° 282° (WNW) 09:49:49 467.674
HO-68 30 Jun 09:41:43 09:48:44 57° 101° (ESE) 09:55:45 435.675
ISS 30 Jun 09:43:47 09:46:59 64° 135° (SE) 09:50:13 145.825
PHONESAT 2.4 30 Jun 09:44:48 09:46:10 12° 141° (SE) 09:47:39 2401.200-2431.200
AAUSAT CUBESAT 2 30 Jun 09:46:48 09:50:29 30° 96° (E) 09:54:14 437.432
BEESAT 3 30 Jun 09:55:14 09:58:11 18° 308° (NW) 10:01:03 437.485
BEESAT 2 30 Jun 10:00:13 10:03:24 21° 308° (NW) 10:06:30 435.950
DANDE 30 Jun 10:00:49 10:08:33 48° 281° (W) 10:14:49 436.750
CUTE 1.7 + AOD 2 30 Jun 10:02:20 10:06:38 85° 283° (WNW) 10:10:55 437.475
CANX-2 30 Jun 10:04:57 10:09:14 70° 283° (WNW) 10:13:30 2200.000
COMPASS 1 30 Jun 10:08:13 10:12:26 70° 101° (E) 10:16:38 437.405
CUBEBUG 2 30 Jun 10:17:37 10:21:12 28° 96° (E) 10:24:54 437.445
RS-15 30 Jun 10:25:27 10:32:19 18° 29° (NNE) 10:39:53 29.354- 29.394
UNISAT 6 30 Jun 10:29:10 10:32:42 25° 72° (ENE) 10:36:16 437.425
CINEMA 3 30 Jun 10:33:01 10:37:11 78° 283° (WNW) 10:41:23 145.822/145.860
VERMONT LUNAR 30 Jun 10:34:42 10:37:42 43° 340° (NNW) 10:40:45 437.305
DELFI C3 30 Jun 10:35:51 10:39:32 33° 97° (E) 10:43:15 145.870
QB50P1 30 Jun 10:40:07 10:41:57 13° 69° (ENE) 10:44:01 145.935-145.965
ZACube-1 30 Jun 10:41:04 10:44:48 31° 97° (E) 10:48:39 437.345
AIST 2 30 Jun 10:46:12 10:49:53 27° 305° (NW) 10:53:33 435.215
Cosmos 2499 30 Jun 10:47:37 10:52:23 20° 86° (E) 10:57:26 435.465 / 435.565
DOVE 4 30 Jun 10:50:06 10:53:13 20° 289° (WNW) 10:56:13 437.250
NANOSAT C BR1 30 Jun 10:55:03 10:58:03 19° 71° (ENE) 11:01:09 145.865
UKube-1 30 Jun 10:58:30 11:00:53 15° 93° (E) 11:03:28 .
SEEDS 30 Jun 10:59:19 11:02:39 22° 288° (WNW) 11:05:53 437.485
Oscar 11 30 Jun 11:00:28 11:04:49 78° 283° (WNW) 11:09:09 145.826/435.025
POLYITAN 1 30 Jun 11:02:04 11:05:28 24° 72° (ENE) 11:08:58 437.675
DUCHIFAT 1 30 Jun 11:03:19 11:06:40 24° 72° (ENE) 11:10:06 145.980
GONETS M04 30 Jun 11:05:15 11:13:46 50° 282° (WNW) 11:22:11
50 SAT 30 Jun 11:12:07 11:13:50 13° 92° (E) 11:15:45 437.505
ANTELSAT 30 Jun 11:12:39 11:17:01 87° 78° (ENE) 11:21:19 437.575/2403.000
UWE-3 30 Jun 11:18:31 11:22:40 63° 284° (WNW) 11:26:53 435.000/436.395/437.385
FUNcube-1 30 Jun 11:19:03 11:23:15 86° 282° (WNW) 11:27:31 145.935
PHONESAT 2.4 30 Jun 11:20:25 11:23:51 82° 153° (SSE) 11:27:19 2401.200-2431.200
ISS 30 Jun 11:22:04 11:23:42 13° 330° (NNW) 11:25:17 145.825
AAUSAT CUBESAT 2 30 Jun 11:23:02 11:25:54 17° 289° (WNW) 11:28:37 437.432
TIGRISAT 30 Jun 11:27:17 11:31:36 64° 259° (W) 11:35:51 435.000
HO-68 30 Jun 11:30:31 11:36:03 24° 296° (WNW) 11:41:19 435.675
QB50P2 30 Jun 11:31:43 11:35:53 57° 75° (ENE) 11:40:04 145.880/145.840
POPSAT HIP 1 30 Jun 11:33:42 11:37:52 58° 76° (ENE) 11:42:04 437.405
VELOX 1 30 Jun 11:37:24 11:41:01 25° 96° (E) 11:44:41 145.980
HUMSAT D 30 Jun 11:39:15 11:43:23 68° 101° (E) 11:47:33 437.325/437.525
BUGSAT 1 30 Jun 11:41:01 11:45:03 44° 75° (ENE) 11:49:06 437.445
CUBEBUG 2 30 Jun 11:54:47 11:57:45 19° 289° (WNW) 12:00:38 437.445
DX 1 30 Jun 12:04:38 12:08:59 74° 285° (WNW) 12:13:18 434.975-435.025
UNISAT 6 30 Jun 12:06:03 12:09:27 21° 265° (W) 12:12:42 437.425
DELFI C3 30 Jun 12:11:58 12:14:22 15° 290° (WNW) 12:16:36 145.870
VERMONT LUNAR 30 Jun 12:12:36 12:15:07 21° 357° (N) 12:17:38 437.305
QB50P1 30 Jun 12:13:26 12:17:30 43° 261° (W) 12:21:33 145.935-145.965
ZACube-1 30 Jun 12:18:13 12:20:58 17° 289° (WNW) 12:23:36 437.345
AISAT 30 Jun 12:22:15 12:26:41 87° 283° (WNW) 12:31:05 437.250
NANOSAT C BR1 30 Jun 12:30:02 12:33:43 27° 264° (W) 12:37:20 145.865
UKube-1 30 Jun 12:33:12 12:37:11 36° 287° (WNW) 12:41:07 .
RS-15 30 Jun 12:36:28 12:48:03 61° 56° (NE) 13:00:07 29.354- 29.394
ESTCUBE 1 30 Jun 12:36:58 12:41:32 83° 102° (ESE) 12:46:03 437.505/2401.250
POLYITAN 1 30 Jun 12:37:58 12:41:20 22° 265° (W) 12:44:35 437.675
Cosmos 2499 30 Jun 12:38:08 12:45:05 53° 280° (W) 12:51:56 435.465 / 435.565
DUCHIFAT 1 30 Jun 12:39:02 12:42:25 22° 265° (W) 12:45:42 145.980
SPROUT 30 Jun 12:40:43 12:43:38 19° 94° (E) 12:46:42 437.525
50 SAT 30 Jun 12:45:04 12:48:36 33° 286° (WNW) 12:52:08 437.505
CUBEBUG 1 30 Jun 12:55:24 12:59:46 70° 284° (WNW) 13:04:03 437.445
PHONESAT 2.4 30 Jun 12:59:03 13:02:07 29° 349° (NNW) 13:05:12 2401.200-2431.200
VELOX 1 30 Jun 13:13:57 13:17:28 23° 289° (WNW) 13:20:52 145.980
BUGSAT 1 30 Jun 13:19:01 13:20:46 12° 269° (W) 13:22:16 437.445
Gurwin Techsat 1B 30 Jun 13:38:23 13:40:08 12° 65° (ENE) 13:42:12 435.225
TISAT 1 30 Jun 13:40:13 13:44:23 65° 101° (E) 13:48:30 437.305
SWISSCUBE 30 Jun 13:47:38 13:49:03 11° 90° (E) 13:50:48 437.505
VERMONT LUNAR 30 Jun 13:49:47 13:52:37 29° 14° (NNE) 13:55:29 437.305
ITUPSAT 1 30 Jun 13:50:54 13:52:01 11° 90° (E) 13:53:29 437.325
Oscar 19 30 Jun 14:06:50 14:11:59 90° 223° (SW) 14:17:10 437.125/150
ITAMSAT 1 30 Jun 14:09:13 14:13:17 24° 69° (ENE) 14:17:30 435.822/435.867
SPROUT 30 Jun 14:16:04 14:19:46 28° 287° (WNW) 14:23:23 437.525
PHONESAT 2.4 30 Jun 14:37:49 14:40:45 25° 6° (N) 14:43:41 2401.200-2431.200
YUBILEINY 30 Jun 14:49:13 14:56:42 32° 73° (ENE) 15:04:25 435.215
RS-15 30 Jun 14:49:42 15:00:09 36° 253° (WSW) 15:10:29 29.354- 29.394
Cosmos 2491 30 Jun 15:04:51 15:10:58 23° 85° (E) 15:17:31 435.465 / 435.565
AO-7 30 Jun 15:07:39 15:13:54 25° 61° (ENE) 15:20:27 29.400- 29.500
BEESAT 30 Jun 15:07:39 15:12:29 88° 112° (ESE) 15:17:17 436.000
Gurwin Techsat 1B 30 Jun 15:14:16 15:19:34 73° 258° (WSW) 15:24:54 435.225
SWISSCUBE 30 Jun 15:22:37 15:27:21 57° 285° (WNW) 15:32:02 437.505
ITUPSAT 1 30 Jun 15:25:36 15:30:22 60° 285° (WNW) 15:35:05 437.325
VERMONT LUNAR 30 Jun 15:26:34 15:29:44 64° 208° (SSW) 15:32:55 437.305
STARS 30 Jun 15:28:52 15:30:19 12° 91° (E) 15:32:03 437.465
JAS-2 30 Jun 15:44:46 15:49:43 47° 73° (ENE) 15:54:44 435.910
ITAMSAT 1 30 Jun 15:47:56 15:52:38 33° 263° (W) 15:57:19 435.822/435.867
HORYU 2 30 Jun 15:53:46 15:57:45 35° 73° (ENE) 16:01:47 437.375
KKS-1 30 Jun 15:59:20 16:03:38 50° 100° (E) 16:07:56 437.445
AIST 1 30 Jun 16:10:23 16:14:04 28° 91° (E) 16:17:51
PHONESAT 2.4 30 Jun 16:15:44 16:19:11 58° 22° (NNE) 16:22:39 2401.200-2431.200
ISS 30 Jun 16:15:45 16:17:18 13° 30° (NNE) 16:18:55 145.825
PCSat 30 Jun 16:38:05 16:43:09 44° 111° (ESE) 16:48:19 145.827
YUBILEINY 30 Jun 16:45:30 16:53:46 47° 270° (W) 17:01:57 435.215
AO-7 30 Jun 16:57:53 17:06:08 65° 256° (WSW) 17:14:26 29.400- 29.500
Cosmos 2491 30 Jun 16:58:29 17:07:14 64° 279° (W) 17:15:59 435.465 / 435.565
SO-50 30 Jun 16:59:58 17:01:31 12° 108° (ESE) 17:03:22 436.795
STARS 30 Jun 17:02:52 17:07:04 46° 286° (WNW) 17:11:14 437.465
MOZHAYETS 4 30 Jun 17:20:26 17:24:44 37° 97° (E) 17:29:02
HORYU 2 30 Jun 17:31:42 17:34:32 16° 267° (W) 17:37:10 437.375
JAS-2 30 Jun 17:32:20 17:35:17 15° 269° (W) 17:37:56 435.910
KKS-1 30 Jun 17:38:02 17:39:53 12° 292° (WNW) 17:41:28 437.445
AIST 1 30 Jun 17:48:35 17:51:46 19° 285° (WNW) 17:54:49
ISS 30 Jun 17:50:48 17:54:01 64° 226° (SW) 17:57:12 145.825
CUTE-I 30 Jun 17:50:58 17:54:40 20° 68° (ENE) 17:58:34 437.470
PHONESAT 2.4 30 Jun 17:54:11 17:57:03 23° 215° (SW) 17:59:54 2401.200-2431.200
JUGNU 30 Jun 18:01:13 18:04:17 14° 167° (SSE) 18:07:27 437.505
Cosmos 2504 30 Jun 18:07:39 18:15:20 70° 82° (E) 18:23:37 435.465 / 435.565
BEESAT 3 30 Jun 18:16:14 18:20:17 74° 62° (ENE) 18:24:14 437.485
BEESAT 2 30 Jun 18:22:02 18:26:06 65° 60° (ENE) 18:30:04 435.950
Cubesat XI-IV 30 Jun 18:22:21 18:27:18 41° 72° (ENE) 18:32:20 437.490
PCSat 30 Jun 18:22:37 18:26:49 22° 307° (NW) 18:30:53 145.827
SO-50 30 Jun 18:36:56 18:41:33 60° 301° (WNW) 18:46:20 436.795
MOZHAYETS 4 30 Jun 18:58:32 19:01:42 18° 290° (WNW) 19:04:41
O/OREOS (USA 219) 30 Jun 18:58:53 19:03:23 66° 69° (ENE) 19:07:53 437.305
AIST 2 30 Jun 19:11:11 19:15:17 52° 60° (ENE) 19:19:18 435.215
BRITE-PL 30 Jun 19:11:20 19:13:42 13° 68° (ENE) 19:16:20 437.365/2234.400
CUBESAT XI-V 30 Jun 19:11:32 19:16:03 46° 99° (E) 19:20:31 437.345
CUTE-I 30 Jun 19:29:22 19:34:27 43° 261° (W) 19:39:33 437.470
PRISM 30 Jun 19:43:50 19:47:28 29° 97° (E) 19:51:08 437.425
JUGNU 30 Jun 19:48:19 19:52:42 21° 176° (S) 19:57:05 437.505
STRAND 1 30 Jun 19:57:41 20:02:37 46° 99° (E) 20:07:33 437.568
Cosmos 2504 30 Jun 20:03:06 20:08:15 18° 274° (W) 20:13:06 435.465 / 435.565
Cubesat XI-IV 30 Jun 20:03:36 20:07:35 20° 267° (W) 20:11:24 437.490
HO-68 30 Jun 20:06:37 20:12:20 28° 66° (ENE) 20:18:15 435.675
DOVE 4 30 Jun 20:13:47 20:17:12 19° 71° (ENE) 20:20:42 437.250
SEEDS 30 Jun 20:14:31 20:14:54 10° 68° (ENE) 20:15:32 437.485
CUSAT 1 30 Jun 20:15:34 20:18:14 69° 81° (E) 20:20:48 437.405
SRMSAT 30 Jun 20:32:27 20:36:17 18° 170° (S) 20:40:10 437.500
AAUSAT CUBESAT 2 30 Jun 20:35:24 20:37:01 12° 69° (ENE) 20:38:50 437.432
GOMX 1 30 Jun 20:44:10 20:49:28 69° 77° (ENE) 20:54:32 467.674
BRITE-PL 30 Jun 20:46:08 20:51:46 71° 259° (W) 20:57:10 437.365/2234.400
DANDE 30 Jun 20:49:16 20:52:04 49° 264° (W) 20:54:35 436.750
CUBESAT XI-V 30 Jun 20:50:29 20:53:07 15° 292° (WNW) 20:55:32 437.345
CUTE 1.7 + AOD 2 30 Jun 20:51:08 20:54:59 38° 74° (ENE) 20:58:54 437.475
AIST 2 30 Jun 20:52:51 20:53:25 10° 251° (WSW) 20:53:44 435.215
CANX-2 30 Jun 20:53:39 20:57:39 46° 75° (ENE) 21:01:42 2200.000
COMPASS 1 30 Jun 20:55:44 20:59:09 26° 73° (ENE) 21:02:40 437.405
M-CUBED/EXP-1 PRIME 30 Jun 21:05:02 21:08:07 20° 100° (E) 21:11:28 437.505
CUBEBUG 2 30 Jun 21:13:05 21:15:31 15° 71° (ENE) 21:18:07 437.445
PRISM 30 Jun 21:19:45 21:22:44 18° 290° (WNW) 21:25:33 437.425
GONETS M04 30 Jun 21:20:23 21:29:02 68° 81° (E) 21:37:40
DELFI C3 30 Jun 21:21:03 21:22:30 12° 69° (ENE) 21:24:11 145.870
CINEMA 3 30 Jun 21:30:13 21:34:47 57° 76° (ENE) 21:39:11 145.822/145.860
ZACube-1 30 Jun 21:34:17 21:36:44 16° 71° (ENE) 21:39:21 437.345
JUGNU 30 Jun 21:36:50 21:41:07 21° 186° (S) 21:45:22 437.505
STRAND 1 30 Jun 21:38:05 21:41:30 17° 292° (WNW) 21:44:42 437.568
SEEDS 30 Jun 21:46:13 21:50:16 52° 260° (W) 21:54:21 437.485
DOVE 4 30 Jun 21:50:02 21:54:46 38° 262° (W) 21:59:15 437.250
Oscar 11 30 Jun 21:51:01 21:55:05 45° 75° (ENE) 21:59:13 145.826/435.025
HO-68 30 Jun 21:52:55 21:59:48 48° 260° (W) 22:06:38 435.675
AAUSAT CUBESAT 2 30 Jun 22:08:22 22:12:17 42° 262° (W) 22:16:13 437.432
AUBIESAT-1 30 Jun 22:08:39 22:12:51 82° 287° (WNW) 22:17:20 437.475
FUNcube-1 30 Jun 22:10:43 22:14:44 41° 75° (ENE) 22:18:42 145.935
UWE-3 30 Jun 22:11:19 22:15:36 59° 76° (ENE) 22:19:46 435.000/436.395/437.385
SRMSAT 30 Jun 22:20:24 22:24:51 22° 180° (S) 22:29:17 437.500
GOMX 1 30 Jun 22:26:14 22:28:01 11° 270° (W) 22:29:22 467.674
HUMSAT D 30 Jun 22:27:23 22:30:48 26° 73° (ENE) 22:34:16 437.325/437.525
CUTE 1.7 + AOD 2 30 Jun 22:28:56 22:31:06 13° 269° (W) 22:33:03 437.475
COMPASS 1 30 Jun 22:31:50 22:34:50 19° 266° (W) 22:37:43 437.405
VELOX 1 30 Jun 22:32:09 22:34:29 15° 68° (ENE) 22:37:01 145.980
Cosmos 2499 30 Jun 22:32:34 22:39:49 41° 77° (ENE) 22:47:39 435.465 / 435.565
CANX-2 30 Jun 22:32:40 22:33:53 11° 270° (W) 22:34:49 2200.000
M-CUBED/EXP-1 PRIME 30 Jun 22:39:13 22:42:54 30° 291° (WNW) 22:46:46 437.505
CUBEBUG 2 30 Jun 22:47:53 22:51:59 37° 262° (W) 22:55:57 437.445
DELFI C3 30 Jun 22:53:30 22:57:16 40° 262° (W) 23:01:03 145.870
DX 1 30 Jun 22:55:50 23:00:06 54° 75° (ENE) 23:04:24 434.975-435.025
ZACube-1 30 Jun 23:08:57 23:12:53 34° 262° (W) 23:16:43 437.345
ANTELSAT 30 Jun 23:09:07 23:12:40 24° 96° (E) 23:16:19 437.575/2403.000
CINEMA 3 30 Jun 23:11:20 23:12:19 10° 269° (W) 23:12:57 145.822/145.860
AISAT 30 Jun 23:15:39 23:19:58 48° 74° (ENE) 23:24:18 437.250
GONETS M04 30 Jun 23:19:07 23:25:11 20° 276° (W) 23:30:48
QB50P2 30 Jun 23:23:05 23:24:52 13° 92° (E) 23:26:54 145.880/145.840
TIGRISAT 30 Jun 23:23:06 23:27:02 34° 98° (E) 23:31:06 435.000
UKube-1 30 Jun 23:23:12 23:27:32 76° 258° (WSW) 23:31:53 .
50 SAT 30 Jun 23:24:33 23:28:21 68° 77° (ENE) 23:32:09 437.505
POPSAT HIP 1 30 Jun 23:24:54 23:26:43 13° 92° (E) 23:28:46 437.405
JUGNU 30 Jun 23:26:56 23:29:30 13° 195° (SSW) 23:31:55 437.505
Oscar 11 30 Jun 23:29:56 23:31:34 12° 269° (W) 23:32:55 145.826/435.025
ESTCUBE 1 30 Jun 23:32:22 23:36:39 45° 74° (ENE) 23:40:59 437.505/2401.250
CUBEBUG 1 30 Jun 23:47:00 23:51:20 56° 75° (ENE) 23:55:43 437.445
FUNcube-1 30 Jun 23:49:25 23:51:17 12° 268° (W) 23:52:53 145.935
UNISAT 6 01 Jul 00:00:40 00:05:02 79° 284° (WNW) 00:09:30 437.425
QB50P1 01 Jul 00:02:39 00:06:35 39° 98° (E) 00:10:32 145.935-145.965
HUMSAT D 01 Jul 00:03:35 00:06:33 18° 266° (W) 00:09:22 437.325/437.525
VELOX 1 01 Jul 00:06:27 00:10:43 42° 261° (W) 00:14:58 145.980
SRMSAT 01 Jul 00:09:33 00:13:24 18° 190° (S) 00:17:12 437.500
NANOSAT C BR1 01 Jul 00:18:23 00:22:33 63° 101° (E) 00:26:42 145.865
Cosmos 2499 01 Jul 00:25:54 00:32:51 34° 271° (W) 00:40:04 435.465 / 435.565
POLYITAN 1 01 Jul 00:26:24 00:30:37 83° 104° (ESE) 00:34:49 437.675
DUCHIFAT 1 01 Jul 00:26:48 00:31:00 79° 102° (ESE) 00:35:10 145.980
TISAT 1 01 Jul 00:28:28 00:32:04 28° 72° (ENE) 00:35:43 437.305
DX 1 01 Jul 00:36:03 00:36:44 10° 270° (W) 00:37:05 434.975-435.025
